Zurück zum Katalog

STARLINK-5839

AktivKommunikationVLEO
NORAD 57051·PAYLOAD·🇺🇸 United States

Gestartet Jun 22, 2023 von Vandenberg Space Force Base

Loading…

Nächste Überflüge (nächste 24 Stunden)

TLE

AktuellSource: CelesTrak SupGP

Epoche: Sep 15, 2026, 01:55 UTC

1 57051C 23088D   26258.08034722  .00060122  00000+0  21774-2 0  2589
2 57051  42.9993 120.8470 0001711 245.3037 346.7643 15.27551065    13

Verfolge STARLINK-5839 in Echtzeit mit AllMySat

Download on the App Store